Погода в Альберобелло

Италия     40°47′06″N   17°14′26″E
темп.,
°C
ветер,
м/с
пор.,
м/с
влажн.,
%
обл.,
%
осадки,
мм/ч
давл.,
гПа
погр.,
м
13 мая, чт
чт1323:00+14з610460 0.0 1011275
02:00+11з5125586 0.0 1011233
05:00+11зюз366338 0.0 101084
08:00+15юз6105727 0.0 1009692
11:00+19юз894515 0.0 10091830
14:00+17юз5854100 0.1 10091242
17:00+18ююз685212 0.0 10091071
20:00+15з611526 0.0 1009331
14 мая, пт
пт1423:00+13зюз58575 0.0 1010137
02:00+12юз356346 0.0 101187
05:00+11ююз35713 0.0 101162
08:00+15юз58610 0.0 1012419
11:00+19зюз56385 0.0 10121882
14:00+21з1436100 0.0 10122054
17:00+19ююв254499 0.0 10121115
20:00+15ю225788 0.0 101227
15 мая, сб
сб1523:00+14юз2252100 0.0 101225
02:00+12ю4773100 0.3 1011233
05:00+11ююз357471 0.1 101083
08:00+14зсз247195 0.6 1010268
11:00+16сз345890 0.1 10111167
14:00+19с244994 0.2 10111827
17:00+16вюв2264100 0.1 1011273
20:00+15зюз126991 0.1 101226
16 мая, вс
вс1623:00+12зсз118398 0.0 101212
02:00+11зсз228453 0.0 101211
05:00+11зсз118824 0.0 101211
08:00+15ююз2368100 0.0 1012277
11:00+20ююз444412 0.0 1012997
14:00+22ююз554092 0.0 10111471
17:00+20ююз555547 0.0 1010551
20:00+16ю467569 0.0 1010124
17 мая, пн
пн1723:00+16ю35778 0.0 101080
02:00+15ююз598030 0.0 1009143
05:00+14ююз58714 0.0 1009115
08:00+19ююз56505 0.0 1009236
11:00+24зюз611416 0.0 10091725
14:00+27зюз10143412 0.0 10082461
17:00+26з911398 0.0 10081764
20:00+20зюз6125193 0.0 1009379